Location: Arrakis Observatory
(44.1122°N, 95.7153°W)
Time: 10:06:25
(UTC-05:00)

Iridium 35 - Visible Passes

Search period start: 28 August 2014 00:00
Search period end: 07 September 2014 00:00
Orbit: 776 x 779 km, 86.4° (Epoch: 27 August)

Date Brightness Start Highest point End Pass type
(mag) Time Alt. Az. Time Alt. Az. Time Alt. Az.
28 Aug 7.4 03:35:58 10° ESE 03:39:25 18° ENE 03:42:53 10° NE visible
28 Aug 5.1 05:15:22 15° SSW 05:19:38 57° W 05:24:47 10° N visible
29 Aug 5.1 04:42:30 21° S 04:46:05 81° E 04:51:19 10° N visible
30 Aug 6.0 04:09:35 22° SSE 04:12:39 45° E 04:17:36 10° NNE visible
30 Aug 6.2 05:50:05 12° WSW 05:53:35 23° WNW 05:57:41 10° NNW visible
31 Aug 6.9 03:36:38 17° ESE 03:39:20 26° E 03:43:33 10° NNE visible
31 Aug 5.5 05:17:09 23° SW 05:19:49 40° W 05:24:43 10° NNW visible
01 Sep 7.6 03:03:40 11° ESE 03:06:09 15° ENE 03:08:52 10° NE visible
01 Sep 4.9 04:44:10 38° SSW 04:46:11 72° W 04:51:25 10° N visible
02 Sep 5.3 04:11:10 44° SSE 04:12:41 64° E 04:17:50 10° N visible
02 Sep 6.6 05:51:40 13° W 05:53:54 16° WNW 05:57:08 10° NNW visible
03 Sep 6.3 03:38:09 32° ESE 03:39:17 36° E 03:44:00 10° NNE visible
03 Sep 6.0 05:18:39 25° WSW 05:20:03 28° WNW 05:24:32 10° NNW visible
04 Sep 7.1 03:05:06 20° E 03:06:01 21° E 03:09:47 10° NNE visible
04 Sep 5.2 04:45:36 46° WSW 04:46:20 50° W 04:51:24 10° N visible
05 Sep 7.7 02:32:03 11° E 02:32:53 11° ENE 02:34:25 10° ENE visible
05 Sep 4.9 04:12:32 83° S 04:12:45 89° W 04:17:59 10° N visible
05 Sep 6.9 05:53:02 11° W 05:54:16 11° WNW 05:55:56 10° NW visible
06 Sep 5.7 03:39:27 51° E 03:39:27 51° E 03:44:19 10° NNE visible
06 Sep 6.4 05:19:57 20° W 05:20:19 20° WNW 05:24:10 10° NNW visible
